Regional Weather Roundup
Issued by NWS

Home | Current Version | Previous Version | Graphics & Text | Print | Product List | Glossary On
Versions: 1 2 3 4 5 6 7 8 9 10 11 12 13 14 15 16 17 18 19 20 21 22 23 24 25 26 27 28 29 30 31 32 33 34 35 36 37 38 39 40 41 42 43 44 45 46 47 48 49 50
000
ASUS43 KDMX 151906
RWRIA

WEATHER ROUNDUP FOR IOWA
NATIONAL WEATHER SERVICE DES MOINES IA
100 PM CST SUN JAN 15 2017

NOTE: "FAIR" INDICATES FEW OR NO CLOUDS BELOW 12,000 FEET WITH NO
SIGNIFICANT WEATHER AND/OR OBSTRUCTIONS TO VISIBILITY.

* - THESE STATIONS ARE NOT NWS STATIONS...THUS NOT UNDER NWS
QUALITY CONTROL.  THEY ALSO DO NOT REPORT WEATHER SUCH
AS PRECIPITATION OR FOG.

IAZ001>003-012>014-020>022-031>034-043>046-152000-
   NORTHWEST IOWA

CITY           SKY/WX    TMP DP  RH WIND       PRES   REMARKS
CARROLL *      CLOUDY    34  21  60 S6        30.26F WCI  29
CHEROKEE *     CLOUDY    35  16  45 S5        30.26F WCI  31
DENISON *      CLOUDY    34  19  55 S5        30.23F WCI  30
LE MARS *      CLOUDY    36  14  41 S10       30.25F WCI  28
ORANGE CITY *  SUNNY     36  18  48 SW12      30.23F WCI  27
SHELDON *      SUNNY     36  18  48 SW12      30.22F WCI  27
SIOUX CITY     CLOUDY    36  19  50 S7        30.25F WCI  30
SPENCER        SUNNY     33  20  58 S9        30.25F WCI  25
STORM LAKE *   CLOUDY    34  16  47 S9        30.24F WCI  26
$$

IAZ055>058-069>071-079>083-090>094-152000-
   SOUTHWEST IOWA

CITY           SKY/WX    TMP DP  RH WIND       PRES   REMARKS
ATLANTIC *     CLOUDY    34  21  60 S5        30.26F WCI  30
AUDUBON *      CLOUDY    34  19  55 CALM      30.27F
CLARINDA *     CLOUDY    32  28  86 SE5       30.28F WCI  27
COUNCIL BLFS * CLOUDY    34  18  51 SE6       30.24F WCI  29
CRESTON *      CLOUDY    30  27  86 SE9       30.26F WCI  22
HARLAN  *      CLOUDY    34  18  51 SE6       30.28F WCI  29
LAMONI         CLOUDY    30  25  81 E7        30.27F WCI  23
RED OAK *      CLOUDY    32  25  74 SE7       30.26F WCI  26
SHENANDOAH *   CLOUDY    32  28  86 SE7       30.27F WCI  26
$$

IAZ047>049-059>061-072>074-084-152000-
   CENTRAL IOWA

CITY           SKY/WX    TMP DP  RH WIND       PRES   REMARKS
AMES           CLOUDY    33  18  53 SE7       30.30F WCI  27
ANKENY *       CLOUDY    32  18  55 SE5       30.32F WCI  27
BOONE *        CLOUDY    30  18  59 S7        30.28F WCI  23
CHARITON *     CLOUDY    30  25  80 SE6       30.29F WCI  24
DES MOINES     CLOUDY    33  21  61 VRB5      30.30F WCI  29
GRINNELL*      CLOUDY    31  16  53 SE5       30.32F WCI  27
KNOXVILLE *    CLOUDY    32  19  59 SE7       30.29F WCI  26
MARSHALLTOWN   MOSUNNY   31  16  54 SE6       30.30F WCI  25
NEWTON *       CLOUDY    32  18  55 E6        30.30F WCI  26
PELLA *        MOSUNNY   33  20  60 SE7       30.32F WCI  27
PERRY *          N/A     32  21  65 SE5       30.30F WCI  27
$$

IAZ004>006-015-016-023>025-035-036-152000-
   NORTH CENTRAL IOWA

CITY           SKY/WX    TMP DP  RH WIND       PRES   REMARKS
ALGONA *       SUNNY     32  19  59 S10       30.27F WCI  24
CLARION *      CLOUDY    32  21  64 S9        30.28F WCI  24
ESTHERVILLE    SUNNY     31  20  63 S9        30.25F WCI  23
FORT DODGE *   CLOUDY    34  18  51 S9        30.29F WCI  26
MASON CITY     CLOUDY    24  18  77 S7        30.31F WCI  16
FOREST CITY *    N/A     32  19  59 S8        30.28F WCI  25
WEBSTER CITY * SUNNY     30  21  69 SE6       30.27F WCI  24
IOWA FALLS *     N/A     32  19  58 CALM      30.32F
$$

IAZ007>011-017>019-026>030-037>042-050>054-066-152000-
   NORTHEAST IOWA

CITY           SKY/WX    TMP DP  RH WIND       PRES   REMARKS
CEDAR RAPIDS   CLOUDY    30  15  53 CALM      30.34F
CHARLES CITY * CLOUDY    25  19  80 S6        30.32F WCI  18
CLINTON *      CLOUDY    33  17  51 CALM      30.36F
DECORAH *      CLOUDY    25  16  68 VRB5      30.32F WCI  19
DUBUQUE        CLOUDY    28  17  63 SW5       30.34F WCI  23
MONTICELLO *   MOSUNNY   32  18  55 CALM      30.35F
OELWEIN *      SUNNY     27  21  80 S5        30.34F WCI  21
WATERLOO       CLOUDY    32  18  56 SE3       30.33F
$$

IAZ064-065-067-068-078-152000-
   EAST CENTRAL IOWA

CITY           SKY/WX    TMP DP  RH WIND       PRES   REMARKS
DAVENPORT      CLOUDY    32  13  45 CALM      30.35F
IOWA CITY      CLOUDY    32  15  49 CALM      30.37F
MUSCATINE *    CLOUDY    32  12  43 SE5       30.35F WCI  27
QUAD CITIES    CLOUDY    33  16  49 CALM      30.35F
$$

IAZ062-063-075>077-085>089-095>099-152000-
   SOUTHEAST IOWA

CITY           SKY/WX    TMP DP  RH WIND       PRES   REMARKS
BURLINGTON     CLOUDY    32  19  58 CALM      30.33F
FAIRFIELD *    PTSUNNY   32  16  51 SE5       30.32F WCI  27
FORT MADISON * MIX PCPN  34  27  75 CALM      30.34F
KEOKUK *       CLOUDY    32  27  80 SE5       30.33F WCI  27
OSKALOOSA *    CLOUDY    32  20  60 E3        30.32F
CENTERVILLE *  PTSUNNY   32  23  69 E5        30.31F WCI  27
OTTUMWA        CLOUDY    32  17  54 SE6       30.31F WCI  26
WASHINGTON *   CLOUDY    32  14  47 CALM      30.35F
$$

ABBREVIATIONS USED IN REMARKS
   TC - TEMPERATURES IN CELSIUS
  WCI - WIND CHILL INDEX
   HX - HEAT INDEX
  VSB - VISIBILITY
$$





USA.gov is the U.S. government's official web portal to all federal, state and local government web resources and services.